Вернуться в каталог

STARLINK-31960

АктивенСвязьVLEO
NORAD 59931·PAYLOAD·🇺🇸 United States

Запущен Jun 1, 2024 с Cape Canaveral Space Force Station

Loading…

Ближайшие Пролёты (ближайшие 24 часа)

TLE

СвежийSource: CelesTrak SupGP

Эпоха: Sep 14, 2026, 21:02 UTC

1 59931C 24106K   26257.87687500 -.00008361  00000+0 -30278-3 0  2572
2 59931  43.0038 343.8566 0001908 275.3971 287.4100 15.27589214    11

Отслеживайте STARLINK-31960 в реальном времени с AllMySat

Download on the App Store